User: anonymous   Login
Location: Unspecified
(0.0000°N, 0.0000°E)
Time: 16:17:31
(UTC+00:00)
Language:

DEORBITSAIL - Orbit

View from above orbital plane
View from above orbital plane
View from above satellite
View from above satellite

Ground track
Ground track

The orbit data is extracted from the following two-line orbital elements,

1 40719U 15032E   21336.90355717  .00000942  00000-0  13860-3 0  9990
2 40719  97.8050 216.5967 0014938 284.1951  75.7600 14.77617051344851
Epoch (UTC): 02 December 2021 21:41:07
Eccentricity: 0.0014938
inclination: 97.8050°
perigee height: 626 km
apogee height: 647 km
right ascension of ascending node: 216.5967°
argument of perigee: 284.1951°
revolutions per day: 14.77617051
mean anomaly at epoch: 75.7600°
orbit number at epoch: 34485

The dashed part of the orbit path shows where the satellite is in the earth's shadow,  

DLR